DECAYED
Showing default

PROXIMA I, 43694 (Decayed)

Orbit data source: Space-Track

PROXIMA I, 43694 was a payload satellite owned by Fleet Space (AU) in LEO that was launched on Sun, 11 Nov 2018 UTC via an ELECTRON launch vehicle from the Rocket Lab Launch Complex (RLLC). Payloads include a variety of satellites, spacecraft, and rockets equipped with specific instruments for various scientific and technological missions. These include communications satellites like Starlink; space stations such as the ISS; scientific satellites like the Hubble; Earth observation satellites from companies like Planet Labs, Umbra, and HawkEye 360; GPS; miniature CubeSats for education and research; and military/defense satellites.

Not visible in the next 10 days
PROXIMA I details
Identifier
43694, 2018-088E
Orbit
Decayed
Last TLE update7 months ago
Origin
Flag of AUFleet Space (AU / AUS)
ManufacturerFleet Space
MissionDecayed Commercial Communications
Bus & MotorCUBESAT 1.5U, Unknown motor
Mass2 kg wet, 2 kg dry
Launch date (UTC)
2018-11-11 (6 years ago)
Launch vehicle
ELECTRON
Launch site
Rocket Lab Launch Complex (RLLC)
Object type
Payload
Rocket body
Debris
Shape & HBRBox, 0.15 m
Radar Cross Section0.026 m², Small (<0.1 m²)

Expand to show TLE details & history

TLE from 7 months ago
0 PROXIMA I
1 43694U 18088E   24139.06678571  .11242035 -15002-5  41498-3 0  9991
2 43694  84.9859 193.3122 0011906 260.3583  99.6379 16.43111434308020
Epoch: 2024-05-18T01:36Z
Definitive object data (Epoch: 2024-05-18T01:36:10.285Z)
Latitude-0.00002°
Longitude-66.96845°
Altitude162.167 km
Speed7.808 km/s
True Right ascension12h 53m 14s
True Declination0° 00' 00"
Sunlit
Object was in full shadow at TLE epoch
Visualization observer readout
Observer readout values are unavailable because the object's trajectory could not be propagated. This is usually caused when the trajectory data is faulty or the object's orbit has decayed.
Visualization observer readout
Observer readout values are unavailable because the object's trajectory could not be propagated. This is usually caused when the trajectory data is faulty or the object's orbit has decayed.
Orbital elements
Apogee altitude162.029 km
Perigee altitude146.474 km
Semi-major axis6,532.389 km
Eccentricity0.0011906
Inclination84.9859°
RAAN193.3122°
Arg. of periapsis260.3583°
True anomaly99.77237°
Mean anomaly99.6379°
Eccentric anomaly99.70514°
Mean motion4.11088 °/min
BSTAR0.00041498
Orbital period87.57 mins
Loading maneuver chart data...
Loading historical data...
Loading historical data...
Loading historical data...
Loading historical data...
Loading historical data...
Loading historical data...
Loading historical data...

PROXIMA I Visibility forecast

Observer location: undefined°, undefined

This satellite is decayed
Span
Click to sort rows by Start time (UTC) header in descending order
Start Az.
Max El. time (UTC)
Max El. Az.
Max El.
End time (UTC)
End Az.
|